This is the latest recevied weather packets stored in our database for station/object G4KVI. If no packets are shown the sender has not sent any weather packets the latest 10 day(s).
| Time | Temp. | Humidity | Pressure | Rain* | Wind** | Luminosity | Snow |
|---|---|---|---|---|---|---|---|
| 1787842504 | 24.44° C | 54% | 1008.8 hPa | 0 mm | - | 524 W/m² | - |
| 1787842204 | 24.44° C | 53% | 1009 hPa | 0 mm | - | 555 W/m² | - |
| 1787841904 | 25° C | 53% | 1009 hPa | 0 mm | - | 585 W/m² | - |
| 1787841604 | 24.44° C | 56% | 1009 hPa | 0 mm | - | 620 W/m² | - |
| 1787841304 | 25° C | 55% | 1009 hPa | 0 mm | - | 641 W/m² | - |
| 1787841004 | 25° C | 55% | 1009.5 hPa | 0 mm | - | 620 W/m² | - |
| 1787840704 | 25.56° C | 55% | 1009.5 hPa | 0 mm | - | 271 W/m² | - |
| 1787840404 | 25.56° C | 52% | 1009.5 hPa | 0 mm | - | 737 W/m² | - |
| 1787840104 | 24.44° C | 56% | 1009.2 hPa | 0 mm | - | 772 W/m² | - |
| 1787839804 | 24.44° C | 55% | 1009.3 hPa | 0 mm | - | 647 W/m² | - |
| 1787839504 | 25.56° C | 53% | 1009.3 hPa | 0 mm | - | 434 W/m² | - |
| 1787839204 | 25.56° C | 51% | 1009.4 hPa | 0 mm | - | 267 W/m² | - |
| 1787838904 | 25.56° C | 51% | 1009.2 hPa | 0 mm | - | 242 W/m² | - |
| 1787838604 | 25° C | 51% | 1008.9 hPa | 0 mm | - | 295 W/m² | - |
| 1787838304 | 24.44° C | 54% | 1009.2 hPa | 0 mm | - | 775 W/m² | - |
| 1787838004 | 25.56° C | 52% | 1009 hPa | 0 mm | - | 498 W/m² | - |
| 1787837704 | 25.56° C | 51% | 1009.2 hPa | 0 mm | - | 600 W/m² | - |
| 1787837404 | 25.56° C | 51% | 1008.8 hPa | 0 mm | - | 692 W/m² | - |
| 1787837104 | 25.56° C | 52% | 1009 hPa | 0 mm | - | 435 W/m² | - |
| 1787836804 | 25.56° C | 54% | 1009 hPa | 0 mm | - | 650 W/m² | - |
| 1787836504 | 25.56° C | 56% | 1009 hPa | 0 mm | - | 596 W/m² | - |
| 1787836204 | 25° C | 57% | 1008.8 hPa | 0 mm | - | 682 W/m² | - |
| 1787835904 | 25° C | 57% | 1009.1 hPa | 0 mm | - | 589 W/m² | - |
| 1787835604 | 25° C | 57% | 1009.1 hPa | 0 mm | - | 675 W/m² | - |
| 1787835304 | 24.44° C | 62% | 1009 hPa | 0 mm | - | 764 W/m² | - |
* Rain latest hour (hover to see other rain measurements)
** Current wind speed in m/s (hover to see current wind gust speed)